TimeCST,TemperatureF,Dew PointF,Humidity,Sea Level PressureIn,VisibilityMPH,Wind Direction,Wind SpeedMPH,Gust SpeedMPH,PrecipitationIn,Events,Conditions,WindDirDegrees,DateUTC
12:40 AM,39.9,37.9,93,30.12,1.8,Calm,Calm,-,N/A,,Clear,0,2013-12-30 06:40:00
12:53 AM,39.2,37.4,93,30.12,0.8,Calm,Calm,-,N/A,,Clear,0,2013-12-30 06:53:00
12:56 AM,39.0,37.0,93,30.09,0.5,Calm,Calm,-,N/A,Fog,Fog,0,2013-12-30 06:56:00
1:21 AM,39.9,37.9,93,30.13,1.0,Calm,Calm,-,N/A,,Mist,0,2013-12-30 07:21:00
1:25 AM,39.9,37.9,93,30.13,2.0,Calm,Calm,-,N/A,,Partly Cloudy,0,2013-12-30 07:25:00
1:33 AM,39.0,37.0,93,30.13,5.0,Calm,Calm,-,N/A,,Partly Cloudy,0,2013-12-30 07:33:00
1:44 AM,39.0,36.0,89,30.12,1.5,Calm,Calm,-,N/A,,Partly Cloudy,0,2013-12-30 07:44:00
1:47 AM,37.9,36.0,93,30.12,0.8,Calm,Calm,-,N/A,,Mist,0,2013-12-30 07:47:00
1:56 AM,37.0,35.1,93,30.09,0.2,Calm,Calm,-,N/A,Fog,Fog,0,2013-12-30 07:56:00
2:03 AM,36.0,34.0,93,30.12,0.5,Calm,Calm,-,N/A,Fog,Fog,0,2013-12-30 08:03:00
2:56 AM,36.0,34.0,93,30.09,0.8,Calm,Calm,-,N/A,,Mist,0,2013-12-30 08:56:00
3:18 AM,36.0,34.0,93,30.13,1.0,Calm,Calm,-,N/A,,Clear,0,2013-12-30 09:18:00
3:24 AM,37.0,34.0,89,30.13,4.0,Calm,Calm,-,N/A,,Clear,0,2013-12-30 09:24:00
3:56 AM,37.9,36.0,93,30.11,7.0,NNW,5.8,-,N/A,,Clear,340,2013-12-30 09:56:00
4:56 AM,37.0,35.1,93,30.09,5.0,Calm,Calm,-,N/A,,Clear,0,2013-12-30 10:56:00
5:56 AM,37.0,35.1,93,30.12,10.0,WNW,3.5,-,N/A,,Mostly Cloudy,300,2013-12-30 11:56:00
6:56 AM,39.0,36.0,89,30.13,6.0,Calm,Calm,-,N/A,,Mostly Cloudy,0,2013-12-30 12:56:00
7:56 AM,44.1,41.0,89,30.14,7.0,Calm,Calm,-,N/A,,Mostly Cloudy,0,2013-12-30 13:56:00
8:56 AM,48.0,45.0,89,30.17,8.0,Calm,Calm,-,N/A,Fog,Patches of Fog,0,2013-12-30 14:56:00
9:56 AM,52.0,48.0,86,30.17,10.0,ENE,3.5,-,N/A,,Mostly Cloudy,60,2013-12-30 15:56:00
10:56 AM,55.0,46.0,72,30.18,10.0,Calm,Calm,-,N/A,,Mostly Cloudy,0,2013-12-30 16:56:00
11:56 AM,57.9,45.0,62,30.16,10.0,Calm,Calm,-,N/A,,Mostly Cloudy,0,2013-12-30 17:56:00
12:56 PM,57.9,45.0,62,30.14,10.0,Calm,Calm,-,N/A,,Overcast,0,2013-12-30 18:56:00
1:56 PM,57.9,48.0,70,30.14,10.0,Calm,Calm,-,N/A,,Overcast,0,2013-12-30 19:56:00
2:56 PM,57.0,46.9,69,30.14,10.0,Calm,Calm,-,N/A,,Overcast,0,2013-12-30 20:56:00
3:56 PM,55.0,48.0,77,30.14,10.0,Calm,Calm,-,N/A,,Overcast,0,2013-12-30 21:56:00
4:56 PM,52.0,48.0,86,30.16,10.0,Calm,Calm,-,N/A,,Overcast,0,2013-12-30 22:56:00
5:56 PM,52.0,48.0,86,30.18,10.0,NNW,4.6,-,N/A,,Overcast,340,2013-12-30 23:56:00
6:56 PM,51.1,48.0,89,30.18,10.0,Calm,Calm,-,N/A,,Overcast,0,2013-12-31 00:56:00
7:56 PM,51.1,46.9,86,30.21,10.0,NNW,5.8,-,N/A,,Overcast,340,2013-12-31 01:56:00
8:56 PM,52.0,48.0,86,30.22,10.0,NNW,4.6,-,N/A,,Overcast,330,2013-12-31 02:56:00
9:56 PM,52.0,46.9,83,30.23,10.0,NNW,4.6,-,N/A,,Overcast,330,2013-12-31 03:56:00
10:56 PM,51.1,46.9,86,30.23,9.0,NNW,3.5,-,N/A,,Overcast,340,2013-12-31 04:56:00
11:56 PM,51.1,45.0,80,30.24,10.0,NNW,3.5,-,N/A,,Partly Cloudy,340,2013-12-31 05:56:00